Temp
-10 -10 -11 -10 -9 -11 -11 -10 -9 -9 -9 -10 -10 -10 -10 -10 -9 -8 -8 -8 -7 -6 -7 -7 -6 -7 -7 -7 -7 -7 -7 -7 -7 -7 -7 -7 -7 -7 -6 -6 -6 -6 -6 -6 -5 -5 -6 -6 -6 -5 -5 -5 -5 -6 -6 -5 -5 -5 -5 -5 -5 -5 -4
-10 -10 -10 -9 -9 -10 -11 -10 -10 -9 -10 -10 -10 -10 -9 -10 -9 -8 -9 -8 -7 -7 -7 -7 -7 -7 -7 -7 -7 -7 -7 -7 -7 -7 -7 -7 -7 -7 -7 -7 -6 -6 -6 -5 -5 -5 -6 -6 -6 -6 -5 -5 -5 -6 -6 -5 -5 -5 -5 -5 -5 -5 -5
-10 -10 -10 -10 -10 -10 -10 -10 -11 -10 -10 -10 -10 -10 -9 -9 -9 -8 -9 -8 -7 -8 -7 -7 -7 -7 -7 -7 -7 -7 -7 -7 -8 -8 -8 -7 -7 -7 -7 -7 -6 -6 -6 -6 -5 -6 -6 -6 -6 -5 -5 -5 -5 -5 -5 -5 -5 -5 -5 -5 -5 -5 -5
-10 -10 -11 -11 -11 -10 -10 -10 -10 -10 -11 -11 -10 -9 -9 -9 -9 -8 -8 -8 -8 -8 -7 -7 -7 -7 -7 -7 -8 -8 -8 -8 -8 -8 -8 -8 -8 -8 -7 -7 -7 -7 -6 -6 -6 -6 -6 -6 -6 -6 -6 -5 -5 -5 -6 -6 -5 -5 -6 -5 -5 -5 -5
-10 -11 -11 -11 -11 -11 -11 -10 -10 -10 -11 -11 -11 -10 -9 -9 -9 -9 -8 -8 -8 -8 -7 -7 -6 -7 -7 -8 -8 -8 -8 -8 -8 -8 -8 -8 -8 -8 -8 -7 -7 -7 -7 -7 -7 -7 -6 -6 -6 -6 -6 -6 -6 -6 -6 -6 -5 -5 -6 -6 -5 -5 -5
-11 -12 -11 -11 -11 -10 -11 -11 -11 -10 -11 -11 -12 -11 -10 -10 -9 -9 -9 -8 -8 -8 -7 -7 -6 -7 -7 -8 -8 -8 -8 -8 -8 -8 -8 -8 -8 -8 -8 -8 -8 -7 -7 -7 -7 -7 -7 -6 -7 -7 -6 -6 -6 -6 -6 -5 -5 -5 -5 -5 -5 -5 -5
-13 -12 -10 -11 -11 -10 -10 -10 -11 -11 -12 -12 -11 -11 -11 -10 -10 -9 -9 -9 -8 -8 -8 -7 -7 -7 -7 -8 -8 -8 -8 -8 -8 -8 -8 -8 -8 -8 -8 -8 -8 -8 -8 -7 -7 -7 -7 -7 -7 -7 -6 -6 -6 -6 -5 -5 -5 -5 -5 -5 -6 -5 -5
-12 -11 -10 -11 -11 -11 -10 -10 -11 -11 -12 -12 -12 -11 -11 -10 -10 -10 -9 -9 -8 -8 -8 -8 -7 -7 -7 -8 -8 -8 -8 -8 -8 -8 -8 -8 -8 -8 -8 -8 -8 -8 -8 -8 -7 -7 -7 -7 -7 -7 -7 -6 -6 -6 -6 -6 -5 -5 -6 -6 -6 -6 -5
-12 -11 -11 -11 -11 -11 -11 -12 -11 -11 -11 -11 -11 -11 -11 -10 -10 -10 -10 -9 -8 -8 -8 -8 -8 -8 -8 -8 -8 -8 -8 -8 -8 -8 -8 -8 -8 -8 -8 -8 -8 -8 -8 -8 -8 -7 -7 -7 -7 -7 -7 -6 -6 -6 -6 -6 -6 -6 -6 -6 -6 -6 -6
-13 -12 -12 -11 -11 -11 -11 -11 -11 -11 -11 -11 -11 -11 -10 -10 -10 -10 -10 -9 -8 -9 -9 -8 -8 -8 -8 -8 -8 -8 -9 -8 -8 -8 -8 -8 -8 -8 -8 -8 -8 -8 -8 -8 -8 -8 -8 -8 -7 -7 -7 -6 -6 -6 -7 -6 -6 -6 -6 -7 -7 -7 -6
-13 -13 -12 -12 -12 -12 -11 -11 -10 -10 -11 -10 -11 -11 -11 -10 -10 -10 -10 -9 -8 -9 -9 -9 -8 -8 -8 -8 -8 -8 -9 -9 -9 -9 -8 -8 -8 -8 -8 -8 -8 -8 -9 -9 -8 -8 -8 -8 -8 -8 -8 -7 -7 -7 -7 -7 -7 -6 -6 -6 -7 -7 -7
-13 -13 -13 -12 -12 -12 -11 -10 -10 -11 -11 -10 -11 -11 -11 -10 -10 -10 -10 -9 -9 -9 -9 -9 -9 -8 -8 -8 -8 -8 -9 -9 -9 -9 -9 -9 -8 -8 -8 -8 -8 -9 -9 -9 -9 -9 -8 -8 -8 -8 -8 -8 -8 -7 -7 -7 -7 -7 -7 -6 -6 -7 -7
-14 -14 -13 -13 -12 -12 -11 -11 -11 -11 -11 -11 -11 -11 -11 -10 -10 -10 -10 -10 -10 -9 -9 -9 -8 -8 -9 -9 -9 -9 -9 -9 -9 -9 -9 -9 -9 -9 -9 -9 -9 -9 -9 -9 -9 -9 -9 -8 -8 -8 -8 -8 -8 -8 -8 -7 -7 -7 -7 -7 -7 -7 -6
-14 -14 -14 -13 -13 -12 -12 -11 -11 -11 -11 -11 -11 -11 -10 -10 -11 -10 -10 -10 -10 -10 -10 -9 -8 -8 -9 -9 -9 -9 -9 -9 -9 -9 -9 -9 -9 -9 -9 -9 -9 -9 -9 -9 -9 -9 -9 -8 -8 -8 -8 -8 -8 -8 -8 -8 -7 -7 -7 -7 -7 -7 -7
-14 -14 -14 -14 -13 -13 -12 -12 -12 -12 -12 -11 -11 -11 -11 -11 -11 -11 -10 -10 -10 -10 -10 -9 -9 -9 -9 -9 -9 -9 -9 -9 -9 -9 -9 -9 -9 -9 -9 -9 -9 -9 -9 -9 -9 -9 -9 -9 -9 -8 -8 -8 -8 -8 -8 -8 -8 -7 -7 -7 -7 -7 -7
-14 -14 -14 -14 -14 -13 -13 -13 -12 -12 -12 -12 -12 -11 -11 -11 -11 -11 -11 -11 -11 -10 -10 -10 -10 -10 -9 -9 -9 -9 -9 -9 -9 -9 -9 -9 -9 -9 -9 -9 -9 -9 -9 -9 -9 -9 -9 -9 -9 -9 -9 -8 -8 -8 -8 -8 -8 -8 -8 -7 -7 -7 -7
-15 -14 -14 -14 -14 -14 -14 -13 -13 -13 -13 -13 -12 -11 -11 -11 -11 -11 -11 -11 -11 -10 -10 -10 -10 -10 -10 -10 -9 -9 -9 -9 -9 -9 -9 -9 -9 -9 -9 -9 -9 -9 -9 -9 -9 -9 -9 -9 -9 -9 -9 -9 -8 -8 -8 -8 -8 -8 -8 -8 -7 -7 -7
-15 -14 -14 -15 -14 -14 -14 -14 -13 -13 -13 -12 -12 -12 -12 -12 -12 -12 -11 -11 -10 -10 -10 -11 -11 -10 -10 -10 -10 -10 -10 -9 -9 -9 -9 -9 -9 -9 -9 -9 -9 -9 -9 -9 -9 -9 -9 -9 -9 -9 -9 -9 -8 -8 -8 -8 -8 -8 -8 -8 -8 -7 -7
-16 -15 -14 -15 -15 -15 -14 -13 -13 -13 -13 -13 -13 -13 -12 -12 -12 -12 -12 -12 -11 -11 -11 -11 -11 -11 -10 -10 -10 -10 -10 -10 -10 -9 -9 -9 -9 -9 -9 -9 -9 -9 -9 -9 -9 -9 -9 -9 -9 -9 -9 -8 -8 -8 -8 -8 -8 -8 -8 -8 -8 -8 -7
-16 -15 -14 -15 -15 -15 -14 -13 -13 -13 -14 -13 -13 -13 -13 -13 -13 -13 -12 -12 -12 -11 -11 -11 -11 -11 -11 -11 -11 -11 -10 -10 -10 -10 -10 -9 -9 -9 -9 -9 -9 -9 -9 -9 -9 -9 -9 -9 -9 -9 -9 -8 -8 -8 -8 -8 -8 -8 -8 -8 -7 -7 -7
-15 -15 -15 -15 -15 -15 -14 -14 -14 -14 -14 -14 -14 -14 -14 -14 -14 -13 -13 -12 -12 -12 -12 -11 -11 -11 -11 -12 -11 -11 -11 -11 -10 -10 -10 -10 -9 -9 -9 -9 -9 -9 -9 -9 -9 -9 -9 -9 -9 -8 -8 -8 -8 -8 -8 -8 -8 -8 -8 -8 -7 -7 -7
-15 -15 -16 -15 -15 -15 -14 -14 -14 -14 -14 -14 -14 -14 -14 -14 -14 -14 -13 -13 -13 -13 -12 -12 -12 -12 -12 -12 -12 -11 -11 -11 -10 -10 -10 -10 -10 -10 -9 -9 -9 -9 -9 -9 -9 -9 -9 -9 -9 -9 -8 -8 -8 -8 -8 -8 -8 -8 -8 -8 -8 -7 -7
-15 -16 -16 -16 -15 -15 -15 -14 -14 -14 -14 -14 -14 -14 -14 -14 -14 -14 -13 -13 -13 -13 -13 -12 -12 -12 -13 -13 -12 -11 -11 -11 -11 -11 -11 -10 -10 -10 -10 -10 -9 -10 -10 -9 -9 -9 -9 -9 -9 -9 -9 -8 -8 -8 -8 -8 -8 -8 -8 -8 -8 -7 -7
-15 -16 -16 -16 -15 -15 -15 -15 -15 -15 -15 -15 -15 -15 -14 -14 -14 -14 -14 -13 -13 -13 -13 -13 -13 -13 -13 -13 -12 -10 -11 -12 -11 -11 -11 -11 -11 -10 -10 -10 -10 -10 -10 -10 -10 -9 -9 -9 -9 -9 -9 -9 -9 -8 -8 -8 -8 -8 -8 -8 -8 -8 -8
-16 -16 -16 -16 -16 -15 -15 -15 -15 -15 -15 -15 -15 -15 -14 -14 -14 -14 -14 -13 -13 -13 -13 -13 -14 -13 -13 -13 -12 -11 -11 -12 -12 -12 -12 -12 -11 -11 -11 -10 -10 -10 -10 -10 -10 -10 -10 -10 -10 -9 -9 -9 -9 -9 -9 -9 -8 -8 -8 -8 -8 -8 -8
-16 -16 -16 -16 -16 -16 -15 -15 -15 -15 -15 -15 -15 -15 -14 -14 -14 -14 -14 -13 -13 -13 -13 -14 -14 -14 -13 -13 -13 -12 -12 -12 -12 -12 -12 -12 -12 -12 -11 -11 -11 -10 -10 -10 -10 -10 -10 -10 -10 -10 -10 -9 -9 -9 -9 -9 -9 -9 -8 -8 -8 -8 -8
-16 -16 -16 -16 -16 -16 -15 -16 -16 -15 -15 -15 -15 -15 -14 -14 -14 -14 -14 -14 -14 -14 -14 -14 -14 -14 -14 -14 -13 -13 -12 -12 -12 -12 -12 -12 -12 -12 -11 -11 -11 -11 -11 -11 -11 -10 -10 -10 -10 -10 -10 -10 -10 -9 -9 -9 -9 -9 -9 -9 -8 -8 -8
-17 -17 -16 -16 -16 -16 -16 -16 -16 -16 -15 -15 -15 -15 -15 -15 -14 -14 -14 -14 -14 -14 -14 -14 -14 -14 -14 -14 -14 -13 -13 -13 -13 -13 -12 -12 -12 -12 -12 -11 -11 -11 -11 -11 -11 -11 -11 -10 -10 -10 -10 -10 -10 -10 -9 -9 -9 -9 -9 -9 -9 -9 -9
-17 -17 -17 -17 -16 -16 -16 -16 -16 -16 -16 -16 -15 -15 -15 -15 -15 -15 -15 -14 -14 -14 -14 -14 -14 -14 -14 -14 -14 -14 -13 -13 -13 -13 -13 -13 -13 -12 -12 -12 -11 -11 -11 -11 -11 -11 -11 -11 -10 -10 -10 -10 -10 -10 -10 -9 -9 -9 -9 -9 -9 -9 -9
-17 -17 -17 -17 -17 -16 -16 -16 -16 -16 -16 -16 -16 -15 -15 -15 -15 -15 -15 -15 -15 -15 -14 -14 -14 -14 -14 -14 -14 -14 -14 -14 -14 -14 -13 -13 -13 -13 -12 -12 -12 -12 -11 -11 -11 -11 -11 -11 -11 -10 -10 -10 -10 -10 -10 -10 -9 -9 -9 -9 -9 -9 -9
-17 -17 -17 -17 -17 -17 -16 -16 -16 -16 -16 -16 -16 -16 -16 -15 -15 -15 -15 -15 -15 -15 -15 -15 -15 -15 -15 -14 -14 -14 -14 -14 -14 -14 -14 -14 -13 -13 -13 -13 -12 -12 -12 -12 -11 -11 -11 -11 -11 -11 -10 -10 -10 -10 -10 -10 -10 -9 -9 -9 -9 -9 -9
-17 -17 -17 -17 -17 -17 -17 -17 -17 -17 -17 -16 -16 -16 -16 -16 -16 -16 -16 -16 -15 -15 -15 -15 -15 -15 -15 -15 -15 -14 -14 -14 -14 -14 -14 -14 -14 -14 -13 -13 -13 -13 -12 -12 -12 -12 -11 -11 -11 -11 -11 -11 -10 -10 -10 -10 -10 -10 -9 -9 -9 -9 -9
-18 -18 -18 -17 -17 -17 -17 -17 -17 -17 -17 -17 -17 -17 -17 -16 -16 -16 -16 -16 -16 -16 -16 -16 -15 -15 -15 -15 -15 -15 -15 -14 -14 -14 -14 -14 -14 -14 -14 -14 -13 -13 -13 -13 -12 -12 -12 -12 -11 -11 -11 -11 -11 -10 -10 -10 -10 -10 -10 -9 -9 -9 -9
-18 -18 -18 -17 -17 -17 -17 -17 -17 -17 -17 -17 -17 -17 -17 -17 -17 -17 -17 -17 -17 -17 -16 -16 -16 -16 -16 -16 -15 -15 -15 -15 -15 -15 -14 -14 -14 -14 -14 -14 -14 -14 -13 -13 -13 -13 -12 -12 -12 -11 -11 -11 -11 -11 -11 -10 -10 -10 -10 -10 -10 -9 -9
-18 -18 -18 -17 -17 -18 -17 -17 -17 -17 -17 -17 -17 -17 -17 -17 -17 -17 -17 -17 -17 -17 -17 -17 -17 -17 -16 -16 -16 -16 -16 -15 -15 -15 -15 -15 -14 -14 -14 -14 -14 -14 -14 -14 -13 -13 -13 -13 -12 -12 -12 -12 -11 -11 -11 -11 -10 -10 -10 -10 -10 -10 -10
-18 -18 -18 -18 -18 -18 -18 -18 -17 -17 -17 -17 -17 -17 -17 -17 -17 -17 -17 -17 -17 -17 -17 -17 -17 -17 -17 -17 -17 -16 -16 -16 -16 -15 -15 -15 -15 -15 -15 -15 -14 -14 -14 -14 -14 -14 -13 -13 -13 -13 -12 -12 -12 -12 -11 -11 -11 -10 -10 -10 -10 -10 -10
-19 -18 -18 -18 -18 -18 -18 -18 -18 -18 -18 -17 -18 -18 -17 -17 -17 -17 -17 -17 -17 -17 -17 -17 -17 -17 -17 -17 -17 -17 -16 -16 -16 -16 -16 -16 -16 -16 -15 -15 -15 -15 -15 -15 -14 -14 -14 -14 -13 -13 -13 -13 -12 -12 -12 -11 -11 -11 -10 -10 -10 -10 -10
Height
5821 5826 5828 5827 5831 5836 5840 5844 5847 5851 5856 5860 5865 5868 5869 5871 5874 5876 5874 5872 5871 5874 5875 5875 5879 5881 5881 5883 5885 5887 5889 5891 5893 5895 5897 5899 5899 5901 5903 5904 5906 5909 5910 5912 5912 5913 5915 5918 5920 5920 5920 5921 5921 5923 5925 5925 5925 5925 5926 5928 5930 5932 5933
5816 5821 5824 5825 5830 5834 5837 5842 5846 5849 5853 5856 5860 5864 5867 5869 5872 5874 5871 5868 5871 5874 5873 5874 5877 5878 5880 5881 5883 5886 5888 5889 5892 5894 5896 5898 5899 5899 5900 5901 5903 5905 5907 5909 5910 5911 5914 5916 5917 5917 5918 5918 5919 5921 5922 5923 5924 5925 5926 5928 5930 5931 5932
5813 5818 5821 5824 5828 5831 5833 5837 5841 5845 5850 5852 5853 5858 5863 5866 5870 5873 5870 5866 5869 5872 5872 5872 5874 5875 5878 5881 5883 5885 5886 5888 5890 5892 5895 5897 5898 5899 5898 5898 5899 5901 5902 5904 5905 5908 5911 5913 5913 5914 5915 5916 5918 5919 5921 5922 5923 5924 5926 5928 5929 5930 5932
5811 5815 5818 5821 5826 5829 5831 5834 5836 5841 5848 5851 5852 5855 5860 5863 5868 5870 5866 5863 5865 5867 5867 5868 5869 5872 5876 5881 5882 5883 5885 5887 5889 5891 5893 5895 5897 5898 5897 5896 5898 5900 5901 5903 5905 5906 5909 5910 5911 5913 5915 5916 5917 5918 5919 5921 5922 5923 5925 5927 5928 5930 5932
5810 5813 5815 5817 5822 5826 5829 5832 5836 5839 5843 5847 5849 5853 5857 5860 5864 5867 5863 5860 5861 5862 5863 5864 5866 5869 5875 5879 5880 5881 5884 5886 5887 5890 5892 5894 5895 5896 5896 5896 5898 5900 5901 5903 5906 5907 5907 5907 5909 5912 5915 5916 5917 5917 5918 5919 5921 5922 5924 5925 5926 5928 5930
5808 5808 5810 5814 5817 5820 5823 5827 5833 5837 5841 5843 5845 5850 5853 5855 5861 5865 5862 5857 5857 5860 5861 5862 5864 5868 5873 5876 5878 5880 5882 5884 5886 5888 5890 5892 5893 5894 5895 5896 5897 5899 5901 5903 5905 5906 5906 5906 5908 5910 5912 5914 5917 5918 5917 5917 5918 5920 5921 5923 5925 5926 5928
5803 5804 5809 5814 5815 5817 5820 5822 5828 5834 5838 5840 5844 5849 5851 5852 5857 5861 5857 5852 5854 5857 5857 5859 5863 5867 5870 5873 5875 5878 5880 5882 5884 5886 5888 5890 5891 5893 5894 5895 5896 5898 5899 5901 5902 5904 5905 5906 5907 5908 5909 5911 5914 5915 5915 5914 5916 5918 5920 5922 5924 5925 5926
5799 5804 5808 5810 5812 5815 5819 5823 5827 5830 5833 5837 5841 5844 5846 5848 5852 5855 5852 5848 5850 5852 5853 5856 5861 5863 5867 5870 5873 5875 5877 5880 5882 5884 5886 5888 5890 5891 5892 5893 5894 5896 5897 5899 5900 5901 5903 5904 5905 5907 5909 5910 5911 5911 5912 5913 5915 5916 5918 5920 5922 5923 5924
5799 5801 5804 5806 5809 5812 5815 5819 5821 5823 5827 5831 5834 5836 5839 5842 5846 5851 5849 5845 5846 5849 5850 5854 5857 5859 5863 5866 5869 5872 5875 5877 5880 5882 5884 5886 5888 5889 5890 5892 5893 5894 5895 5896 5898 5900 5900 5901 5902 5905 5907 5908 5907 5908 5911 5913 5914 5914 5916 5918 5921 5922 5923
5796 5798 5801 5804 5806 5808 5811 5813 5815 5819 5822 5826 5829 5833 5836 5838 5842 5846 5843 5840 5842 5846 5848 5851 5853 5856 5859 5862 5866 5869 5872 5874 5877 5879 5882 5884 5886 5887 5889 5890 5891 5892 5893 5894 5896 5898 5899 5899 5899 5901 5902 5903 5903 5904 5906 5910 5912 5912 5913 5915 5918 5921 5922
5792 5794 5797 5800 5803 5807 5809 5810 5813 5817 5819 5822 5827 5830 5832 5835 5839 5840 5837 5837 5840 5842 5844 5847 5850 5852 5855 5858 5862 5865 5868 5871 5873 5876 5879 5881 5883 5885 5886 5888 5889 5890 5891 5892 5893 5895 5896 5897 5898 5899 5900 5901 5902 5902 5902 5905 5909 5912 5913 5913 5915 5919 5921
5789 5791 5793 5797 5800 5802 5804 5807 5811 5814 5816 5820 5823 5825 5826 5830 5834 5833 5833 5836 5838 5838 5840 5844 5847 5850 5852 5855 5858 5861 5864 5867 5870 5872 5875 5877 5879 5881 5883 5885 5887 5888 5889 5890 5891 5893 5894 5895 5896 5897 5899 5900 5901 5901 5901 5902 5906 5910 5913 5914 5915 5917 5919
5787 5789 5791 5793 5796 5798 5801 5805 5808 5810 5814 5816 5818 5819 5822 5828 5830 5829 5830 5833 5834 5834 5837 5840 5844 5848 5850 5852 5855 5857 5860 5863 5866 5868 5871 5873 5876 5877 5880 5882 5884 5886 5887 5888 5889 5890 5892 5893 5894 5895 5897 5898 5899 5900 5901 5901 5903 5907 5910 5912 5914 5915 5917
5784 5786 5788 5790 5792 5795 5798 5801 5803 5806 5809 5810 5812 5815 5820 5825 5827 5825 5827 5829 5828 5829 5832 5835 5840 5845 5847 5849 5851 5853 5856 5859 5861 5864 5867 5869 5871 5873 5875 5878 5880 5882 5883 5884 5886 5888 5889 5890 5892 5893 5895 5896 5897 5898 5899 5900 5901 5904 5906 5909 5911 5912 5914
5781 5783 5785 5787 5789 5792 5795 5796 5799 5802 5804 5807 5810 5813 5817 5821 5822 5822 5823 5823 5823 5826 5829 5832 5836 5841 5843 5845 5847 5849 5852 5854 5857 5860 5862 5865 5867 5869 5871 5873 5875 5877 5879 5881 5882 5884 5886 5887 5889 5891 5892 5893 5895 5896 5897 5898 5900 5901 5903 5906 5908 5910 5911
5778 5781 5783 5784 5786 5789 5791 5793 5796 5798 5801 5803 5805 5808 5811 5815 5818 5819 5817 5817 5820 5823 5826 5830 5833 5835 5837 5840 5842 5845 5848 5850 5853 5856 5858 5861 5863 5865 5867 5869 5871 5873 5875 5877 5879 5881 5883 5884 5886 5887 5889 5890 5892 5893 5894 5896 5898 5899 5900 5902 5905 5907 5909
5775 5777 5780 5781 5783 5786 5787 5789 5791 5793 5796 5797 5800 5804 5807 5810 5814 5815 5813 5813 5816 5819 5823 5827 5828 5829 5832 5835 5838 5841 5843 5846 5849 5851 5854 5857 5859 5861 5864 5865 5867 5870 5871 5873 5875 5877 5879 5881 5883 5884 5885 5887 5888 5890 5891 5893 5895 5896 5898 5899 5901 5903 5906
5772 5773 5777 5778 5780 5781 5782 5783 5786 5790 5792 5794 5797 5800 5802 5805 5808 5810 5809 5809 5812 5817 5820 5821 5822 5825 5828 5831 5834 5836 5839 5841 5844 5847 5850 5852 5855 5857 5859 5861 5863 5865 5868 5870 5872 5874 5876 5878 5880 5881 5883 5884 5885 5887 5888 5890 5891 5893 5895 5897 5899 5900 5902
5770 5769 5773 5775 5774 5775 5776 5779 5784 5788 5789 5791 5793 5795 5798 5801 5802 5804 5806 5806 5809 5814 5814 5814 5818 5822 5824 5828 5830 5831 5834 5836 5839 5842 5845 5847 5850 5852 5855 5857 5859 5861 5863 5866 5868 5869 5872 5874 5876 5878 5880 5881 5883 5884 5885 5886 5888 5890 5891 5893 5895 5897 5898
5766 5766 5769 5770 5770 5771 5774 5778 5782 5784 5785 5787 5789 5791 5793 5795 5796 5798 5801 5802 5806 5808 5807 5808 5815 5818 5820 5823 5824 5825 5828 5831 5833 5836 5839 5842 5845 5847 5850 5852 5854 5856 5858 5861 5863 5865 5867 5869 5871 5873 5875 5877 5879 5881 5882 5883 5885 5886 5888 5889 5891 5893 5894
5763 5764 5765 5766 5767 5769 5772 5774 5776 5778 5781 5783 5785 5786 5788 5790 5791 5793 5795 5798 5801 5802 5802 5806 5811 5813 5814 5816 5817 5819 5823 5825 5828 5831 5833 5836 5839 5842 5844 5847 5848 5851 5853 5855 5857 5859 5861 5864 5866 5868 5871 5873 5875 5877 5879 5880 5881 5883 5884 5886 5888 5889 5890
5761 5762 5762 5763 5764 5765 5767 5769 5770 5773 5776 5778 5780 5781 5783 5786 5787 5788 5790 5793 5796 5797 5799 5802 5805 5807 5810 5810 5810 5813 5817 5819 5823 5826 5828 5831 5834 5836 5839 5841 5843 5846 5848 5849 5852 5854 5856 5858 5860 5863 5865 5867 5869 5872 5874 5876 5877 5878 5880 5882 5884 5885 5886
5757 5758 5759 5760 5760 5760 5762 5764 5766 5769 5771 5773 5775 5776 5777 5779 5782 5784 5786 5788 5790 5792 5794 5797 5800 5803 5803 5801 5801 5808 5813 5815 5818 5821 5823 5825 5828 5830 5832 5835 5838 5840 5841 5843 5846 5848 5850 5853 5855 5857 5859 5861 5864 5866 5868 5871 5872 5874 5876 5877 5879 5880 5882
5753 5754 5756 5757 5757 5757 5759 5761 5762 5764 5765 5767 5770 5770 5770 5774 5778 5780 5781 5782 5785 5787 5790 5793 5796 5796 5794 5792 5797 5806 5811 5811 5813 5815 5817 5819 5822 5824 5826 5829 5832 5834 5835 5837 5840 5842 5845 5847 5849 5851 5854 5856 5858 5860 5862 5865 5867 5869 5871 5872 5874 5876 5877
5750 5751 5752 5753 5753 5753 5755 5755 5757 5759 5761 5762 5763 5763 5765 5770 5774 5775 5776 5777 5780 5783 5786 5788 5788 5787 5788 5791 5796 5801 5805 5806 5808 5809 5810 5813 5815 5817 5820 5823 5825 5826 5829 5832 5834 5836 5839 5841 5842 5845 5848 5850 5852 5854 5856 5859 5861 5863 5865 5866 5868 5870 5871
5746 5747 5748 5749 5749 5749 5750 5751 5752 5754 5755 5756 5756 5759 5763 5766 5769 5770 5771 5772 5775 5779 5781 5782 5781 5782 5786 5789 5791 5794 5797 5799 5801 5802 5804 5807 5809 5811 5814 5817 5818 5820 5823 5826 5828 5830 5833 5834 5836 5839 5841 5844 5846 5848 5850 5852 5855 5857 5859 5861 5863 5865 5866
5742 5742 5743 5744 5744 5744 5746 5748 5748 5749 5750 5751 5753 5757 5760 5761 5763 5764 5765 5767 5770 5773 5774 5775 5776 5779 5781 5783 5785 5788 5790 5791 5794 5796 5798 5800 5803 5805 5808 5810 5812 5815 5817 5819 5821 5823 5825 5828 5830 5832 5835 5837 5840 5842 5844 5846 5848 5851 5853 5855 5857 5859 5861
5737 5738 5738 5739 5739 5740 5742 5743 5743 5744 5747 5749 5750 5752 5754 5756 5757 5758 5759 5762 5765 5766 5768 5770 5771 5773 5775 5777 5780 5782 5783 5784 5788 5790 5792 5793 5795 5798 5800 5803 5806 5809 5811 5813 5815 5816 5818 5821 5823 5825 5828 5831 5833 5835 5837 5839 5842 5845 5847 5849 5851 5853 5854
5734 5734 5734 5735 5736 5736 5737 5737 5739 5741 5743 5744 5744 5746 5749 5751 5751 5752 5754 5757 5758 5760 5762 5764 5765 5767 5769 5771 5774 5776 5776 5778 5781 5784 5786 5787 5789 5791 5793 5795 5798 5801 5804 5806 5808 5809 5811 5813 5816 5819 5821 5824 5826 5828 5830 5832 5835 5838 5840 5842 5845 5847 5848
5730 5730 5730 5731 5731 5731 5732 5733 5735 5737 5738 5738 5739 5741 5743 5745 5746 5748 5749 5751 5753 5754 5756 5757 5759 5761 5763 5765 5767 5769 5770 5771 5773 5777 5779 5781 5783 5784 5786 5788 5790 5792 5795 5798 5800 5802 5804 5805 5808 5811 5814 5817 5820 5822 5823 5825 5828 5830 5833 5836 5838 5840 5842
5726 5726 5726 5727 5727 5727 5728 5729 5730 5732 5732 5733 5734 5736 5737 5739 5741 5742 5743 5745 5747 5748 5750 5751 5753 5755 5757 5758 5760 5762 5763 5765 5766 5769 5772 5774 5776 5778 5779 5780 5783 5785 5787 5789 5792 5794 5797 5798 5800 5803 5806 5809 5812 5814 5816 5818 5820 5823 5826 5829 5831 5834 5836
5721 5721 5722 5722 5723 5723 5724 5725 5726 5727 5728 5728 5730 5731 5732 5734 5735 5736 5738 5739 5741 5742 5744 5745 5746 5748 5750 5752 5753 5755 5757 5758 5759 5762 5764 5766 5768 5770 5771 5773 5776 5778 5779 5781 5783 5785 5788 5790 5792 5795 5798 5801 5803 5806 5809 5810 5812 5815 5818 5821 5824 5827 5829
5716 5717 5717 5718 5719 5719 5720 5721 5722 5723 5724 5725 5726 5727 5728 5729 5730 5731 5732 5733 5735 5736 5738 5739 5740 5742 5743 5745 5747 5748 5749 5751 5753 5755 5757 5759 5761 5762 5764 5767 5769 5771 5772 5774 5776 5778 5780 5782 5784 5787 5789 5792 5794 5797 5799 5802 5804 5807 5810 5813 5816 5819 5822
5711 5712 5712 5714 5715 5715 5716 5717 5717 5718 5720 5721 5722 5723 5723 5724 5725 5726 5727 5728 5729 5731 5732 5733 5735 5735 5736 5738 5739 5741 5742 5744 5746 5748 5750 5752 5753 5755 5757 5759 5761 5763 5765 5766 5768 5770 5772 5773 5775 5778 5780 5782 5784 5787 5790 5792 5795 5798 5801 5805 5808 5811 5814
5706 5707 5708 5709 5710 5710 5711 5712 5713 5714 5715 5716 5717 5718 5719 5719 5720 5722 5722 5723 5725 5726 5727 5728 5729 5729 5730 5731 5732 5734 5735 5737 5738 5740 5742 5744 5746 5747 5749 5751 5753 5755 5756 5758 5760 5762 5764 5765 5767 5769 5771 5773 5774 5777 5779 5782 5785 5789 5792 5796 5800 5803 5805
5701 5702 5703 5703 5704 5705 5706 5707 5709 5709 5710 5712 5713 5713 5714 5715 5716 5717 5718 5719 5720 5721 5722 5723 5724 5725 5725 5726 5727 5728 5729 5730 5731 5733 5734 5736 5738 5739 5740 5742 5744 5746 5748 5750 5752 5753 5755 5757 5758 5760 5762 5764 5765 5766 5769 5771 5775 5778 5782 5786 5790 5794 5796
5695 5697 5697 5698 5699 5701 5702 5703 5704 5704 5705 5706 5708 5708 5708 5709 5710 5711 5712 5713 5715 5716 5717 5718 5719 5720 5721 5721 5722 5723 5723 5724 5725 5726 5728 5729 5729 5730 5731 5733 5734 5737 5739 5740 5742 5744 5746 5747 5749 5751 5753 5755 5756 5757 5759 5761 5764 5767 5771 5775 5780 5784 5787
Wind_Speed
45 44 44 51 42 30 34 42 44 42 34 21 14 18 20 20 24 28 35 43 41 36 38 40 37 35 34 32 32 31 30 30 30 28 27 26 25 25 24 24 25 24 22 21 22 23 23 24 24 23 23 23 23 24 25 24 23 22 22 23 24 24 24
47 47 44 51 47 35 34 38 40 42 37 27 21 21 21 21 24 26 32 41 43 38 37 38 39 40 37 34 33 32 31 30 29 29 27 26 25 25 25 26 26 26 25 21 19 20 21 22 24 25 25 25 25 25 26 25 23 23 23 23 24 24 25
46 48 45 45 45 43 41 37 36 38 34 32 33 29 24 24 25 26 29 35 38 39 39 39 41 42 40 37 34 32 32 31 30 30 28 27 26 25 27 28 27 27 27 23 20 18 19 23 27 27 27 27 27 25 26 26 23 23 24 23 22 22 23
45 46 46 43 42 43 44 41 40 39 29 28 34 32 27 26 26 28 33 35 32 36 41 42 42 43 41 37 36 35 33 32 31 31 29 28 27 26 28 29 27 26 26 25 23 22 22 24 27 27 27 27 27 26 25 24 23 22 22 21 19 20 21
45 42 44 44 41 42 44 43 42 41 31 22 27 32 29 25 25 29 33 35 33 35 41 43 42 43 40 37 38 38 35 34 33 32 31 30 28 28 29 29 28 27 26 25 24 23 25 24 22 24 26 27 28 27 26 24 22 21 20 19 19 20 21
38 38 45 46 45 46 46 45 43 39 32 22 22 30 31 25 22 24 28 33 34 34 39 44 44 42 40 39 40 40 38 36 35 33 33 31 30 29 29 29 28 27 27 26 25 25 26 24 20 21 24 26 28 27 25 24 21 20 20 20 21 22 23
32 41 48 46 46 48 48 48 45 37 29 24 23 25 29 29 26 24 29 35 36 35 37 42 43 41 41 40 40 41 40 38 37 36 34 33 32 30 30 30 30 29 28 26 26 26 26 25 23 21 20 22 24 25 24 24 22 20 20 21 22 23 23
35 44 46 43 45 47 45 43 43 38 30 26 26 26 28 32 32 31 32 35 36 38 39 39 39 40 42 42 40 41 42 41 39 37 35 34 33 32 32 31 31 32 31 28 27 26 26 26 26 23 19 18 21 22 22 23 23 22 21 21 22 22 22
37 43 44 44 45 46 44 42 44 45 39 32 34 35 36 38 35 32 33 35 34 35 36 37 37 38 40 43 43 41 42 43 41 39 37 36 35 34 33 33 32 33 33 32 29 27 26 27 27 25 20 18 20 20 18 20 23 23 22 21 22 22 21
32 37 41 43 44 43 44 46 48 49 47 42 39 38 40 41 38 35 37 40 38 35 33 33 36 39 39 41 43 42 41 43 43 41 39 37 36 36 35 34 33 34 34 34 31 29 28 27 27 26 24 22 23 22 20 19 22 24 22 21 22 21 21
27 32 37 40 41 41 45 49 48 46 47 47 42 39 41 41 39 39 41 42 43 43 40 35 34 37 39 39 42 43 41 41 43 43 42 40 38 37 37 36 34 35 35 33 30 29 29 28 27 26 25 25 25 25 24 22 21 22 22 23 24 22 21
31 30 34 37 38 42 46 49 48 45 46 46 43 43 46 43 41 42 43 43 45 47 46 41 36 35 36 38 40 42 42 42 42 43 43 43 41 40 39 38 37 36 35 33 31 30 30 30 29 28 26 27 27 27 26 25 22 21 21 23 25 25 24
37 33 32 35 39 42 45 46 46 46 45 44 45 47 48 44 42 44 44 42 44 46 46 46 42 37 35 37 38 40 42 42 42 43 44 44 44 42 41 40 39 38 37 36 35 33 32 32 32 31 29 29 28 28 28 27 25 23 21 22 24 26 27
40 38 35 35 38 41 43 44 45 45 44 45 47 49 48 45 43 44 44 42 44 45 45 47 47 43 38 38 39 41 42 42 43 44 44 45 45 44 43 41 40 40 40 40 38 37 36 36 35 34 33 32 31 30 31 30 27 25 23 21 22 25 26
38 40 39 37 37 39 41 43 43 44 45 45 46 47 47 46 44 44 45 45 45 45 44 45 45 44 43 42 41 41 42 43 43 44 44 46 46 46 46 44 43 43 43 42 41 39 39 38 38 37 36 35 34 33 32 31 30 28 25 24 23 23 25
36 38 39 40 39 37 39 42 42 43 43 44 45 47 48 47 45 43 45 47 46 45 44 42 40 41 44 45 45 43 43 43 44 44 44 45 46 47 48 47 46 46 45 45 44 42 40 40 40 40 39 38 37 36 35 34 32 31 30 28 26 25 25
33 36 37 39 39 38 38 40 42 43 43 44 47 48 47 47 46 44 44 47 47 44 42 41 41 41 43 45 46 45 43 44 44 44 44 44 45 47 48 48 48 47 47 47 46 44 43 42 42 42 41 41 40 39 39 37 36 35 34 33 31 30 28
30 34 35 36 37 37 38 40 42 43 44 45 46 46 46 48 48 47 47 48 47 43 41 42 44 45 43 43 45 45 44 44 44 44 44 44 44 45 47 48 48 48 48 48 47 47 46 44 44 44 44 43 43 42 42 41 39 38 38 37 35 34 33
28 32 32 34 37 38 41 42 40 40 42 45 46 47 47 47 49 49 50 50 49 47 46 47 47 46 46 45 45 46 46 46 45 45 44 44 44 45 46 47 48 49 49 48 48 49 48 47 46 46 46 46 45 44 44 44 43 42 41 40 38 37 37
30 33 32 33 37 38 40 41 39 39 40 43 45 46 46 46 47 49 50 52 51 51 52 51 49 48 47 47 48 48 48 47 47 47 46 45 45 45 46 47 48 48 48 48 49 50 50 50 49 48 48 48 47 46 46 46 46 45 44 43 42 41 41
31 33 32 32 35 36 37 39 40 39 39 40 42 45 46 46 48 49 51 52 52 52 53 52 51 50 49 47 49 50 50 49 49 48 48 47 47 47 47 47 48 48 48 48 48 49 50 50 50 50 50 49 49 48 47 47 47 48 47 46 44 45 44
29 32 32 31 33 36 37 38 40 40 39 39 40 43 45 45 46 48 50 50 50 52 53 52 51 52 49 49 50 51 51 51 50 49 49 49 48 48 48 48 48 48 48 48 48 48 48 49 49 49 50 50 50 49 48 48 48 48 49 48 47 47 46
28 30 30 30 32 36 36 36 38 39 39 39 40 42 44 44 45 46 49 50 49 50 51 52 52 51 49 51 54 53 51 51 52 51 51 50 50 50 50 50 49 48 48 49 48 48 48 48 48 48 48 49 49 49 49 49 49 49 49 49 49 50 49
28 29 30 30 32 34 34 35 37 38 39 40 41 43 45 46 45 44 46 48 49 49 50 50 50 50 51 54 57 56 52 50 51 51 52 52 52 52 52 52 50 50 50 50 49 49 49 48 48 47 47 47 48 48 48 49 50 50 50 50 50 51 51
30 31 32 32 31 31 32 34 36 36 37 39 40 43 46 46 45 45 46 48 48 48 49 48 49 52 53 55 57 56 53 51 51 51 52 52 52 53 53 53 53 53 52 51 50 50 50 49 49 49 48 48 47 48 48 48 49 50 50 51 51 51 52
33 32 33 32 32 32 32 33 34 35 36 38 40 41 42 44 45 45 46 48 48 47 47 48 50 52 52 52 54 55 55 54 53 53 54 54 53 54 54 54 55 55 54 53 53 52 52 52 52 51 50 50 49 49 49 48 49 49 50 51 51 51 52
33 34 34 34 34 35 34 33 34 35 36 38 38 38 39 41 43 44 45 47 47 47 47 48 49 50 50 51 53 55 56 56 55 56 57 57 56 56 56 56 56 56 56 55 55 55 55 54 54 54 53 52 51 51 51 51 51 50 50 51 51 51 52
28 32 35 36 37 37 36 35 36 36 36 36 37 37 38 39 41 42 43 44 45 46 47 48 49 49 50 50 52 54 56 56 55 56 57 58 59 59 59 59 59 58 57 57 57 57 57 57 57 56 56 55 54 54 54 54 54 53 52 52 52 53 53
24 26 28 32 36 38 38 38 38 37 35 36 39 40 39 39 40 41 41 42 43 44 45 46 47 48 48 49 50 52 54 55 55 56 57 58 59 60 61 61 61 61 60 60 59 59 60 60 60 59 59 58 57 57 57 57 57 56 56 55 54 54 55
26 26 25 26 30 33 36 37 37 36 36 38 40 41 41 42 42 42 42 42 43 43 44 45 45 46 47 47 48 50 52 53 54 54 56 57 58 59 61 62 63 63 63 63 62 62 62 63 63 63 62 61 60 59 60 60 60 60 59 58 58 57 57
29 27 27 26 26 27 29 30 31 33 35 38 40 41 42 43 43 43 44 44 44 45 45 46 46 46 46 47 47 49 50 51 51 52 53 55 56 57 59 61 62 64 65 65 65 65 64 65 66 66 65 64 63 63 62 62 63 63 62 62 61 60 60
32 30 29 28 28 28 27 27 27 28 30 33 35 37 39 41 41 42 43 44 45 46 46 47 48 48 48 48 48 49 50 51 51 51 51 52 53 55 57 58 60 62 64 65 67 67 67 67 67 68 67 67 67 66 65 65 65 65 65 65 64 63 63
33 33 32 31 30 30 29 28 28 28 27 28 29 30 32 34 36 37 39 41 42 44 45 47 48 49 49 50 51 51 52 53 53 53 53 53 53 54 55 56 57 59 61 63 65 67 68 69 69 69 70 69 69 69 69 68 68 67 67 67 67 66 66
33 34 35 35 34 32 31 31 31 30 30 29 29 29 30 31 31 32 33 35 36 38 40 42 44 46 47 49 50 51 53 55 55 55 55 56 56 56 57 57 58 58 59 61 62 64 66 68 69 70 71 71 72 72 72 72 71 70 70 69 69 69 68
35 35 35 36 36 35 35 35 33 33 33 33 32 32 32 33 33 33 33 34 34 35 36 37 39 41 42 44 46 48 50 52 54 56 56 57 58 58 59 59 60 60 61 62 62 63 64 66 68 69 70 72 73 74 74 74 74 74 73 72 71 70 70
36 36 36 37 36 36 37 36 36 35 35 34 33 34 35 35 35 35 36 36 36 37 37 38 39 39 40 41 43 44 45 48 50 52 53 55 56 58 59 59 60 61 62 63 64 65 66 66 67 68 69 71 72 74 75 76 76 76 76 75 74 73 73
35 36 37 37 36 35 35 35 36 37 37 36 35 37 38 38 38 39 39 39 39 40 40 41 41 42 42 42 42 43 43 44 45 47 48 49 51 53 55 57 58 60 61 63 64 66 67 68 69 70 70 71 72 74 75 77 78 78 78 77 77 76 75
Wind_Direction
213 208 209 212 209 202 206 211 212 209 204 204 211 218 225 220 213 219 219 217 220 224 227 229 225 224 231 234 228 224 226 229 231 233 235 236 238 239 238 237 238 233 230 235 233 226 227 228 223 219 219 220 219 223 228 226 220 217 216 214 213 211 208
213 209 211 215 212 205 203 206 212 211 206 202 204 207 215 216 207 213 227 229 226 227 229 230 227 225 226 229 227 223 224 227 228 230 231 233 237 241 241 241 240 235 233 236 232 224 226 229 226 220 218 220 220 222 227 227 224 222 221 218 215 212 211
212 211 213 216 214 212 208 205 208 208 207 211 208 197 198 210 206 205 222 231 229 229 231 232 231 227 225 226 226 224 224 225 227 228 230 231 234 239 242 243 242 241 243 246 247 243 237 236 233 226 221 221 222 224 227 226 223 220 219 220 218 217 215
210 210 213 215 214 214 215 213 208 202 203 218 216 199 192 203 204 203 220 233 232 227 228 229 229 228 226 224 224 224 223 224 226 227 230 232 234 237 241 242 243 245 248 249 251 253 249 244 238 229 225 225 224 225 226 223 222 219 218 220 220 220 221
208 211 212 213 212 212 215 218 214 206 202 212 218 206 194 196 202 208 224 235 233 226 225 226 225 226 226 222 221 222 223 223 225 226 229 232 234 237 240 242 243 244 246 246 246 249 250 248 241 231 231 231 227 223 220 220 223 223 224 225 221 219 220
210 213 213 212 213 211 211 214 214 212 210 207 210 209 202 197 201 212 230 238 235 229 228 228 227 225 225 223 222 222 222 223 224 225 229 232 234 237 240 243 244 244 245 246 246 246 246 249 250 242 232 227 226 224 221 223 224 224 227 227 222 222 221
217 215 213 212 216 215 213 213 210 209 214 215 213 214 211 206 200 208 228 236 234 232 230 229 229 227 226 224 222 222 222 223 225 225 228 230 233 237 240 243 244 244 244 245 248 247 244 245 248 244 234 227 229 230 227 228 226 224 230 229 225 226 226
221 216 215 214 217 218 218 219 215 211 211 213 214 216 217 213 207 211 227 232 229 231 232 229 229 229 227 225 223 222 222 223 225 226 227 229 232 235 238 241 243 244 244 244 248 250 248 245 244 246 249 242 238 235 230 230 228 224 226 229 230 230 228
224 220 219 216 217 217 217 218 217 217 217 214 212 213 214 214 209 211 229 237 231 231 233 229 228 230 228 225 224 223 222 223 224 226 226 228 231 233 235 238 241 244 245 245 247 249 250 249 248 253 261 254 246 245 238 231 229 225 222 225 231 235 232
224 224 223 220 219 218 217 218 216 217 221 222 218 215 214 215 213 209 220 232 232 231 232 228 226 228 228 225 224 223 222 222 224 226 226 227 229 232 233 235 238 242 244 243 243 246 248 251 253 258 263 257 250 253 254 244 235 232 231 230 230 233 235
217 220 221 221 220 219 220 221 220 219 222 223 222 220 217 217 218 215 217 225 229 229 229 227 223 224 226 225 223 221 221 222 223 224 225 226 228 230 231 232 234 239 242 241 238 240 243 247 252 256 259 258 254 255 260 257 244 235 236 237 236 233 232
215 218 219 218 218 220 221 221 221 221 222 222 222 221 219 216 217 221 223 226 229 230 230 228 225 222 224 224 221 220 221 221 221 222 223 225 226 228 228 229 230 233 238 238 235 236 239 242 247 250 253 256 257 259 263 262 254 243 237 236 237 236 234
215 219 221 219 218 220 222 223 223 222 222 222 222 222 221 218 219 224 227 227 229 232 233 232 228 224 225 224 221 220 220 219 219 220 220 222 224 225 225 226 227 228 232 234 234 235 237 239 243 246 249 252 255 258 262 264 262 255 246 238 236 236 236
217 219 222 222 220 221 222 222 223 223 222 222 223 224 222 221 222 226 228 229 230 231 233 233 230 227 227 226 223 221 220 219 219 218 219 220 221 223 223 223 224 225 227 230 232 234 237 239 240 243 246 249 251 254 257 261 263 262 256 247 240 238 239
221 222 223 223 222 221 221 222 222 222 223 223 224 225 224 223 224 227 228 230 232 231 231 233 232 230 229 228 227 224 222 221 221 219 219 220 221 222 223 223 222 223 225 227 229 232 234 237 239 240 242 245 247 250 252 256 260 262 261 255 248 244 243
224 223 225 226 226 224 223 222 222 222 223 223 224 224 224 223 223 227 229 231 232 233 231 232 233 233 230 229 229 228 227 226 224 223 222 222 222 223 224 224 224 224 226 227 229 230 231 233 235 237 239 241 244 247 249 251 254 257 259 260 256 251 247
227 225 224 228 229 229 228 225 222 221 222 223 224 224 225 224 223 225 230 232 231 230 231 231 233 234 232 230 230 231 231 230 229 227 227 226 225 225 226 227 227 227 228 229 230 231 232 232 234 235 237 239 241 243 246 248 250 251 253 256 257 256 253
232 228 224 227 230 229 230 228 223 221 223 224 224 225 225 226 225 225 228 232 232 229 231 233 233 234 233 232 233 234 235 234 233 232 230 229 228 228 228 229 231 231 231 231 232 233 233 233 234 235 236 237 239 241 243 246 248 249 250 252 254 256 256
233 233 226 226 230 229 229 229 225 224 226 226 225 225 225 227 228 227 227 231 233 232 235 236 235 236 237 237 238 239 239 238 238 237 235 233 231 231 230 231 232 233 234 234 234 235 235 235 235 235 236 237 238 239 242 244 246 248 250 251 251 253 254
230 237 233 230 232 232 231 230 228 227 228 228 227 227 226 227 229 229 228 230 231 233 236 236 235 238 240 240 241 242 242 242 241 240 239 237 235 234 233 233 234 235 235 235 236 236 237 237 236 236 237 237 238 238 240 242 245 246 248 250 250 252 253
228 236 239 237 236 236 234 231 230 230 230 231 231 231 229 229 230 230 230 230 231 232 235 236 235 238 240 241 242 242 242 242 242 242 241 240 238 237 236 235 236 236 237 237 237 237 238 238 238 237 237 238 238 238 239 240 243 245 247 249 250 251 252
229 233 238 240 239 238 235 233 232 232 232 232 233 234 233 232 233 234 233 233 233 234 235 236 236 238 240 242 241 240 241 241 242 242 243 242 241 240 239 238 238 238 239 239 238 238 238 239 239 238 238 238 238 238 238 239 240 242 245 246 248 250 251
232 232 234 237 240 239 236 235 235 235 234 233 233 235 235 233 234 236 236 236 236 236 237 237 237 238 241 242 240 238 239 241 242 243 243 243 243 242 242 241 240 240 241 240 239 239 239 239 239 239 238 238 238 238 237 237 238 240 242 244 246 248 250
235 235 233 235 241 243 240 238 237 236 236 235 234 236 236 235 234 235 237 238 238 239 239 239 239 239 241 242 240 237 238 242 244 244 245 245 244 244 243 242 242 243 243 242 241 241 240 240 240 239 239 239 238 238 237 236 237 238 239 241 243 245 248
236 238 236 234 238 243 241 239 238 236 236 236 235 235 237 236 235 236 237 238 238 239 240 240 241 241 242 243 243 240 240 242 243 244 245 245 245 245 244 243 243 244 244 243 243 243 242 242 242 241 240 239 239 239 238 237 236 237 238 239 240 242 244
236 238 239 238 238 239 240 240 240 238 236 236 236 236 238 238 237 238 239 239 238 238 239 240 241 242 243 244 245 243 242 242 242 243 244 244 244 245 245 245 245 245 245 245 245 244 243 243 243 243 242 241 240 240 239 238 237 236 237 238 238 239 241
235 235 236 237 239 241 241 241 241 240 238 239 240 240 239 239 239 239 240 240 239 239 239 240 241 242 242 243 244 244 244 244 244 244 245 245 245 245 244 244 244 245 246 246 246 246 245 244 244 244 243 243 242 241 240 239 238 237 236 236 237 237 238
236 236 236 236 238 241 242 240 241 241 241 242 244 242 241 240 241 241 242 242 241 240 241 241 242 242 242 243 243 244 244 245 245 245 245 246 246 246 245 245 244 244 245 246 247 247 246 245 244 244 244 243 243 242 242 241 240 238 237 236 236 236 237
233 235 237 237 237 239 241 241 242 242 241 240 241 242 242 241 242 243 243 243 243 243 243 243 243 243 243 244 244 244 245 246 245 245 245 245 246 247 247 246 245 245 245 245 245 246 247 246 245 245 244 244 244 243 243 243 242 240 239 237 237 236 236
235 234 236 237 237 238 240 241 241 241 239 239 240 242 242 241 242 243 244 244 244 245 245 245 245 244 244 245 244 244 245 246 246 246 245 246 246 246 247 247 246 246 246 245 245 246 246 247 246 245 245 244 244 244 244 244 243 242 241 240 238 237 237
238 238 237 236 236 237 239 239 239 239 240 240 242 242 242 242 243 243 244 244 245 245 246 247 247 247 247 247 246 246 246 247 247 247 247 247 247 247 247 247 247 247 247 247 247 246 246 247 247 246 246 245 244 244 244 244 244 244 243 242 240 239 238
239 239 238 236 235 236 237 238 238 238 238 239 240 242 243 244 244 244 245 245 245 245 246 247 248 248 249 249 249 249 249 249 250 249 249 249 248 248 248 248 248 248 248 248 248 248 248 247 247 247 247 246 246 245 244 244 244 245 244 243 242 241 241
241 240 240 238 237 236 236 236 236 236 236 237 238 240 242 243 243 244 245 245 246 246 247 248 249 250 250 250 250 250 251 251 252 252 252 252 252 251 251 250 250 249 249 249 249 249 249 249 248 248 248 247 247 246 245 244 244 244 244 244 244 243 243
241 240 239 239 239 239 237 236 236 236 237 237 237 238 240 241 241 242 243 244 244 245 246 247 248 249 251 251 252 252 252 253 253 254 254 254 254 254 254 253 253 253 252 251 250 250 250 250 250 249 249 248 248 248 247 246 245 244 244 244 244 244 244
241 240 240 239 239 239 239 238 237 237 237 237 237 238 240 240 240 241 241 242 242 243 244 245 246 247 249 250 251 252 253 253 254 255 255 255 255 256 256 256 255 255 255 254 253 252 252 251 251 250 250 250 249 249 248 247 246 245 244 244 244 244 244
243 241 241 241 240 240 241 241 240 240 240 239 239 240 241 241 242 242 243 243 243 244 244 244 245 246 247 249 250 252 253 254 255 256 256 257 257 257 257 257 257 257 257 256 256 255 254 253 252 252 251 251 250 250 249 248 247 247 246 245 243 243 244
247 243 242 242 241 241 242 244 244 244 243 241 240 241 242 242 242 242 243 244 245 245 245 246 246 246 247 248 250 252 253 255 256 257 258 259 259 259 259 259 258 258 257 257 257 257 257 256 255 254 253 252 251 251 250 250 249 248 247 246 245 244 243